Phoenix Sky Harbor International Airport
KPHX : now visible

Airfield :











YOU CAN JOIN US ON...

 
LOGIN :

Register | Disclaimer

   EN    FR    IT 

 









Legend :    VFR   Marginal VFR   IFR   Intensive IFR   Very Intensive IFR
Visi :
Ceiling :
>= 8 km
>= 3000ft
5 to 8 km
1000 to 3000 ft
1500m to 5 km
500 to 1000 ft
800 to 1500m
200 to 500 ft
< 800m
< 200 ft
Symbols :   Thunderstorms  Fog  Heavy snow  Heavy precipitations  Wind > 20 kt






- Airport Elevation : 1135 ft
- IATA code : PHX


KPHX - Phoenix Sky Harbor International

CURRENT METAR :
  • 031351Z 12008KT 10SM FEW130 32/18 A2990 RMK AO2 SLP103 T03220178

EXPIRED METARs :
  • 031251Z 09009KT 10SM FEW100 FEW120 32/18 A2989 RMK AO2 SLP099 T03170178
  • 031151Z 11006KT 10SM FEW130 32/17 A2987 RMK AO2 SLP092 T03220172 10383 20322 53004

TAF KPHX
Valid from the 03 at 12:00 until the 04 at 18:00 UTC


031120Z 0312/0418 13007KT P6SM FEW120 FEW250
FM031900 28010KT P6SM FEW120
FM040800 10005KT P6SM FEW120
KZAB FIR / North America



MET'MAP, your aeronautical weather chart ! - Copyright ORBIFLY December 2007 - Disclaimer

ORBIFLY MET'MAP TEAM :

Programming & Development : Alexandra Zaïnal
Concept & original design : Baudouin d'Aumeries
Assistance for programming : Marc-Olivier Méhu
Technical & hardware support : Manuel Goepfert

Contact : metmap@orbifly.com




SOURCES & CREDITS :

   NOAA       Earth
Advisory